Home   Weather   Concepción   Past weeks

Flag for Chile Past Weather in Concepción, Chile — Yesterday and Last 2 Weeks

Now
61 °F

Broken clouds.


Feels Like: 61 °F
Forecast: 47 / 64 °F
Wind: 5 mph from Southeast

Location: Concepcion Airport

Current Time: Sep 26, 2016 at 12:46:24 PM

Latest Report: Sep 26, 2016 at 12:00 PM


Visibility: N/A

Pressure: 30.07 "Hg

Humidity: 68%

Dew Point: 50 °F

Location of ConcepciónLocation

Past Weather in Concepción — Graph

°F

Concepción Temperature Yesterday

Maximum temperature yesterday: 57 °F (at 12:00 PM)
Minimum temperature yesterday: 46 °F (at 11:00 PM)
Average temperature yesterday: 54 °F

High & Low Weather Summary for the Past Weeks

 TemperatureHumidityPressure
High79 °F (Sep 22, 5:00 PM)100% (Sep 11, 9:00 PM)30.33 "Hg (Sep 11, 9:00 PM)
Low41 °F (Sep 14, 6:00 AM)19% (Sep 23, 6:00 AM)29.92 "Hg (Sep 23, 1:00 AM)
Average55 °F80%30.08 "Hg
* Reported Sep 11 12:00 PM — Sep 26 12:00 PM, Concepción, Weather by CustomWeather, © 2016

Note: Actual official high and low records may vary slightly from our data, if they occured in-between our weather recording intervals... More about our weather records

Advertising

Concepción Weather History for the Previous 24 Hours

Scroll right to see more
 ConditionsComfort  
Time TempWeatherWind HumidityBarometerVisibility
12:00 PM
Mon, Sep 26
61 °FBroken clouds.5 mph68%30.07 "HgN/A
11:00 AM57 °FPartly sunny.5 mph77%30.07 "HgN/A
10:00 AM54 °FPartly sunny.5 mph82%30.07 "Hg5 mi
9:00 AM50 °FBroken clouds.3 mph88%30.07 "Hg4 mi
8:00 AM48 °FBroken clouds.1 mph94%30.07 "Hg4 mi
7:00 AM48 °FOvercast.5 mph94%30.07 "HgN/A
6:00 AM48 °FOvercast.6 mph94%30.07 "HgN/A
5:00 AM48 °FPassing clouds.2 mph87%30.04 "HgN/A
4:00 AM50 °FOvercast.1 mph88%30.07 "HgN/A
3:00 AM48 °FPassing clouds.No wind94%30.07 "HgN/A
2:00 AM46 °FPassing clouds.No wind93%30.09 "HgN/A
1:00 AM45 °FPassing clouds.2 mph93%30.09 "HgN/A
12:00 AM45 °FPassing clouds.2 mph93%30.09 "HgN/A
11:00 PM
Sun, Sep 25
46 °FPassing clouds.1 mph93%30.09 "HgN/A
10:00 PM48 °FPassing clouds.1 mph87%30.09 "HgN/A
9:00 PM50 °FPassing clouds.2 mph88%30.09 "HgN/A
8:00 PM54 °FPassing clouds.5 mph77%30.09 "HgN/A
7:00 PM55 °FPartly sunny.7 mph72%30.07 "HgN/A
6:00 PM57 °FPartly sunny.6 mph72%30.07 "HgN/A
5:00 PM57 °FPartly sunny.7 mph72%30.07 "HgN/A
4:00 PM57 °FOvercast.6 mph72%30.07 "HgN/A
3:00 PM57 °FOvercast.3 mph72%30.07 "HgN/A
2:00 PM57 °FOvercast.7 mph72%30.09 "HgN/A
1:00 PM57 °FOvercast.8 mph72%30.09 "HgN/A
12:00 PM57 °FOvercast.8 mph72%30.09 "HgN/A
Weather by CustomWeather, © 2016

See weather overviewHow to use our weather pages